Regional Weather Roundup
Issued by NWS Grand Forks, ND

Home | Current Version | Previous Version | Graphics & Text | Print | Product List | Glossary On
Versions: 1 2 3 4 5 6 7 8 9 10 11 12 13 14 15 16 17 18 19 20 21 22 23 24 25 26 27 28 29 30 31 32 33 34 35 36 37 38 39 40 41 42 43 44 45 46 47 48 49 50
000
ASUS43 KFGF 240131
RWRFGF
PRAIRIE TO PINES  WEATHER ROUNDUP
NATIONAL WEATHER SERVICE EASTERN NORTH DAKOTA/GRAND FORKS ND
800 PM CDT MON MAY 23 2016

 **SATELLITE DATA USED TO AUGMENT SKY COVER AT AUTOMATED STATIONS**
 *****  WEATHER ACROSS EASTERN NORTH DAKOTA  *****

CITY           SKY/WX    TMP DP  RH WIND       PRES   REMARKS
GRAND FORKS    PTCLDY    77  52  41 SW5       29.64S
GRAND FRKS AFB CLEAR     76  53  45 SW5       29.65S
GRAND FRKS NWS   N/A     72 N/A N/A SW1         N/A
DEVILS LAKE    MOSUNNY   74  43  32 W9        29.67S
FARGO          CLOUDY    76  47  35 NE8       29.66F
WAHPETON ARPT  CLOUDY    75  46  35 S6        29.67R
$$

 ***** WEATHER ACROSS CENTRAL AND WESTERN NORTH DAKOTA  *****

CITY           SKY/WX    TMP DP  RH WIND       PRES   REMARKS
BISMARCK       SUNNY     71  39  31 W7        29.68R
MINOT          MOSUNNY   72  40  31 W3        29.66R
JAMESTOWN      SUNNY     71  51  49 S7        29.66S
MINOT AFB      PTSUNNY   71  36  27 W15       29.64R
GARRISON         N/A     63  41  44 W22G29    29.73R
WILLISTON      CLOUDY    68  36  30 W17G25    29.68R
DICKINSON      MOSUNNY   61  41  47 SE8       29.70S
HETTINGER      PTSUNNY   67  37  33 NE10      29.73R
$$

 *****  OTHER AIRPORT OBSERVATIONS IN OUR AREA  *****

CITY           SKY/WX    TMP DP  RH WIND       PRES   REMARKS
WALHALLA       FAIR      75  39  27 SW5       29.64S
GRAFTON AIRPOR MOCLDY    68  48  49 N10       29.67S
VALLEY CITY AR FAIR      72  55  56 S5        29.69S
CANDO          FAIR      68  41  37 W7        29.69R
CAVALIER APRT  FAIR      75  41  29 SW5       29.64S
GWINNER        FAIR      75  55  50 S9        29.68S
SHEYENNE NWR     N/A     79  51  37 SW2       29.95S
ROLLA          FAIR      68  37  32 W7        29.68S
 ***** THE ABOVE OBSERVATIONS ARE NON NWS ARE NOT QUALITY
       CONTROLLED AND MAY MIS-REPORT RAIN FOR SNOW...
$$

  *****  WEATHER ACROSS NORTHERN MINNESOTA  *****

CITY           SKY/WX    TMP DP  RH WIND       PRES   REMARKS
FLAG ISLAND    PTCLDY    70  50  49 CALM      29.66S
WARROAD        MOCLDY    75  46  35 SW5       29.68S
ROSEAU         MOCLDY    75  46  35 W3        29.67F
HALLOCK        CLEAR     75  46  35 S6        29.64F
THF RVR FALLS  PTCLDY    73  52  46 SE3       29.69F
BAUDETTE       MOCLDY    73  44  35 W5        29.68S
WASKISH        MOCLDY    70  57  64 MISG      29.70S
CROOKSTON      CLOUDY    75  54  46 CALM      29.67F
STEPHEN NDAWN    N/A     73  54  49 SE2         N/A
GREENBUSH NDAW   N/A     73  54  49 SW3         N/A
$$
  *****  WEATHER ACROSS CENTRAL AND WEST MINNESOTA  *****

CITY           SKY/WX    TMP DP  RH WIND       PRES   REMARKS
FOSSTON        CLOUDY    73  59  60 CALM      29.70S
BEMIDJI        MOCLDY    72  50  46 NW3       29.71R
PARK RAPIDS    CLOUDY    75  54  47 S5        29.69S
ELBOW LAKE     FAIR      74  52  46 SW7       29.69R
WADENA         CLOUDY    72  54  53 SE5       29.70R
DETROIT LAKES  PTCLDY    73  46  38 CALM      29.71R
MOORHEAD       CLOUDY    75  41  29 NE7       29.68R
FERGUS FALLS   CLOUDY    75  52  43 SW5       29.64S
MORRIS MN      PTCLDY    73  55  53 SW5       29.69R
STAPLES        CLOUDY    70  59  68 SE5       29.71S
$$
  *****  WEATHER ELSEWHERE ACROSS MINNESOTA  *****

CITY           SKY/WX    TMP DP  RH WIND       PRES   REMARKS
DULUTH         LGT RAIN  70  59  68 SW9       29.76R
INTRNTL FALLS  CLOUDY    70  55  59 W3        29.69R
ELY            CLOUDY    63  55  77 N3        29.74R
CLOQUET        RAIN      66  61  82 W8        29.78R
WHEATON        CLOUDY    79  57  47 S7        29.69S
BRAINERD       CLOUDY    66  62  87 SE7       29.73R
HIBBING        CLOUDY    70  58  65 S6        29.72R
ALEXANDRIA     LGT RAIN  74  56  53 S6        29.71R
SAINT CLOUD    LGT RAIN  66  64  93 SE13      29.73R
MINNEAPOLIS    CLOUDY    74  58  57 S15G23    29.74S
$$

  *****  WEATHER ACROSS SOUTH DAKOTA  *****

CITY           SKY/WX    TMP DP  RH WIND       PRES   REMARKS
SIOUX FALLS    CLOUDY    73  59  61 CALM      29.74S
BROOKINGS      CLOUDY    71  59  65 SW6       29.74S
WATERTOWN      CLOUDY    73  55  53 S10       29.72S
HURON          CLEAR     72  53  51 SW5       29.70R
SISSETON         N/A     76  53  44 W8        29.67S
ABERDEEN       PTCLDY    77  49  37 S7        29.68S
MITCHELL       CLEAR     75  58  55 S7        29.72R
PIERRE         SUNNY     74  46  36 VRB7      29.67S
MOBRIDGE       SUNNY     74  50  42 SE9       29.65F
RAPID CITY     SUNNY     67  29  24 W9        29.71R
$$

  *****  SOME WEATHER IN NEARBY STATES *****

CITY           SKY/WX    TMP DP  RH WIND       PRES   REMARKS
GLASGOW MT     CLOUDY    58  41  53 W13       29.70R
GREAT FALLS MT LGT RAIN  44  41  89 N8        29.82R
CHEYENNE WY    MOSUNNY   58  38  47 S13G21    29.90S
SCOTTSBLUFF NE PTSUNNY   55  46  71 SE14      29.87F
OMAHA NE       CLOUDY    71  63  75 S9        29.77S
DES MOINES IA  CLOUDY    72  59  63 SW3       29.83R
DAVENPORT IA   CLOUDY    76  46  34 S9        29.87F
CHICAGO IL     MOCLDY    74  37  26 SE12      29.91S
EAU CLAIRE WI  CLOUDY    71  65  81 CALM      29.76F
LA CROSSE WI   PTCLDY    74  55  51 SW16      29.80F
$$

  *****  SOME NATIONAL WEATHER *****

CITY           SKY/WX    TMP DP  RH WIND       PRES   REMARKS
LA GUARDIA NY  MOCLDY    65  48  54 S9        29.89R
RALEIGH NC     PTCLDY    58  54  86 CALM      30.01R
ATLANTA GA     PTCLDY    74  49  41 CALM      29.99R
NEW ORLEANS LA MOCLDY    81  61  50 SE8       29.94R
OKLAHOMA CITY  MOCLDY    71  69  93 SE14G22   29.81F
ALBUQUERQUE NM MOSUNNY   82  11   7 SW17      29.82S
SALT LAKE CITY PTSUNNY   69  26  20 N7        29.81F
LOS ANGELES CA MOSUNNY   63  54  72 W16       29.88S
BOISE ID       SUNNY     68  32  26 NW7       29.80F
SEATTLE WA     CLOUDY    63  47  55 NE8       29.94S
$$

*** WEATHER ACROSS MANITOBA...SASKATCHEWAN AND ONTARIO ***
                ***ONTARIO***

CITY           SKY/WX    TMP DP  RH WIND       PRES   REMARKS
GERALDTON      NOT AVBL
THUNDER BAY    MOCLDY    73  57  56 SW5       29.68R
SIOUX LOOKOUT  MOCLDY    68  54  60 W5        29.69R
TORONTO        PTCLDY    72  43  35 VRB2      29.93S
BIG TROUT LK   LGT RAIN  39  37  93 N14G23    29.65R
PICKLE LAKE    MOCLDY    66  52  59 W16G24    29.63R
DRYDEN         CLEAR     70  46  43 W5        29.69R
KENORA         CLOUDY    72  50  46 S5        29.69R
$$
                *** MANITOBA***

CITY           SKY/WX    TMP DP  RH WIND       PRES   REMARKS
BRANDON        PTSUNNY   73  36  25 W13       29.63R
DAUPHIN        PTSUNNY   70  41  35 W6        29.61R
ISLAND LAKE    CLOUDY    43  43 100 NE10G20   29.75R
PILOT MOUND      N/A     68  36  30 W9          N/A
THE PAS        CLOUDY    48  45  87 NE9G17    29.72R
THOMPSON       PTSUNNY   43  37  81 VRB2      29.83R
WINNIPEG       MOSUNNY   75  43  31 SW10      29.62R
LYNN LAKE      CLOUDY    52  39  62 SE8       29.83R
CHURCHILL      CLOUDY    28  23  80 N15G21    29.98R WCI  17
GILLAM         CLOUDY    36  34  93 NE16G23   29.88R
$$
                ***SASKATCHEWAN***

CITY           SKY/WX    TMP DP  RH WIND       PRES   REMARKS
ESTEVAN        PTSUNNY   64  39  39 SW21G31   29.65R
KINDERSLEY     CLOUDY    50  45  81 N15       29.64R
LLOYDMINSTER   CLOUDY    54  45  71 NE9G17    29.71R
PRINCE ALBERT  LGT RAIN  55  50  82 E7        29.64
REGINA         PTSUNNY   55  46  71 W5        29.60R
YORKTON        CLOUDY    64  41  42 S3        29.61R
N. BATTLEFORD  LGT RAIN  50  50 100 N9        29.68R
LA RONGE       DRIZZLE   46  43  87 NE12      29.79R
SASKATOON      CLOUDY    57  39  51 NE10      29.61R
SWIFT CURRENT  CLOUDY    50  46  87 W13       29.59R
$$
NOTE: THESE ARE AUTOMATED STATIONS WITH LIMITED QUALITY CONTROL
      "FAIR" INDICATES FEW OR NO CLOUDS BELOW 12,000 FEET WITH NO
      SIGNIFICANT WEATHER AND/OR OBSTRUCTIONS TO VISIBILITY.
      SKY/WX - SKY CONDITION AND SIGNIFICANT WEATHER.
      TMP - AIR TEMPERATURE.    DP   - DEWPOINT TEMPERATURE.
      RH  - RELATIVE HUMIDITY.  PRES - PRESSURE.
      HX  - HEAT INDEX.         WCI  - WIND CHILL INDEX.
$



USA.gov is the U.S. government's official web portal to all federal, state and local government web resources and services.